CW0641 Weather Reports


Display with metric or nautical units.
time (UTC)temp
F
wind
direction
speed
MPH
gust
MPH
rain 1hr
in
rain 24hr
in
rain mn
in
humidity
%
barometer
mb
20191112124351 74 139 4.0 14.0 0.00 0.00 0.00 36 1009.1
20191112123852 74 140 4.0 14.0 0.00 0.00 0.00 36 1009.0
20191112123352 74 97 4.0 13.0 0.00 0.00 0.00 36 1009.1
20191112122852 73 51 5.0 15.0 0.00 0.00 0.00 36 1009.1
20191112122352 73 163 5.0 15.0 0.00 0.00 0.00 36 1009.2
20191112121852 73 111 4.0 12.0 0.00 0.00 0.00 36 1009.2
20191112121352 73 103 5.0 11.0 0.00 0.00 0.00 35 1009.2
20191112120851 73 105 5.0 14.0 0.00 0.00 0.00 36 1009.2
20191112120352 73 155 4.0 14.0 0.00 0.00 0.00 36 1009.2
20191112115852 73 92 5.0 12.0 0.00 0.00 0.00 36 1009.2
20191112115352 73 117 5.0 14.0 0.00 0.00 0.00 37 1009.3
20191112114852 73 138 5.0 14.0 0.00 0.00 0.00 37 1009.3
20191112114352 73 135 6.0 14.0 0.00 0.00 0.00 37 1009.4
20191112113852 74 119 5.0 13.0 0.00 0.00 0.00 36 1009.3
20191112113352 73 138 5.0 11.0 0.00 0.00 0.00 36 1009.3
20191112112852 73 114 5.0 11.0 0.00 0.00 0.00 36 1009.3
20191112112352 73 121 5.0 14.0 0.00 0.00 0.00 36 1009.3
20191112111853 73 123 5.0 14.0 0.00 0.00 0.00 36 1009.3
20191112111353 73 143 5.0 16.0 0.00 0.00 0.00 36 1009.3
20191112110848 73 165 5.0 16.0 0.00 0.00 0.00 36 1009.6
20191112110348 73 46 6.0 14.0 0.00 0.00 0.00 36 1009.6
20191112105848 73 167 6.0 14.0 0.00 0.00 0.00 36 1009.6
20191112105348 73 143 5.0 14.0 0.00 0.00 0.00 36 1009.7
20191112104848 73 107 5.0 14.0 0.00 0.00 0.00 36 1009.9
20191112104348 72 133 5.0 12.0 0.00 0.00 0.00 36 1009.9
20191112103848 72 140 6.0 18.0 0.00 0.00 0.00 36 1009.9
20191112103347 72 146 6.0 18.0 0.00 0.00 0.00 36 1010.0
20191112102847 72 107 5.0 13.0 0.00 0.00 0.00 36 1010.1
20191112102348 72 108 6.0 14.0 0.00 0.00 0.00 37 1010.1
20191112101848 72 132 5.0 14.0 0.00 0.00 0.00 37 1010.2
20191112101348 72 120 5.0 13.0 0.00 0.00 0.00 37 1010.3
20191112100848 72 140 5.0 13.0 0.00 0.00 0.00 37 1010.3
20191112100348 72 124 5.0 12.0 0.00 0.00 0.00 37 1010.3
20191112095848 71 120 6.0 10.0 0.00 0.00 0.00 38 1010.5
20191112095348 72 91 5.0 4.0 0.00 0.00 0.00 37 1010.5
20191112094848 72 91 5.0 11.0 0.00 0.00 0.00 39 1010.6
20191112094347 72 91 5.0 13.0 0.00 0.00 0.00 39 1010.7
20191112093850 71 109 6.0 13.0 0.00 0.00 0.00 38 1010.7
20191112093347 71 78 5.0 14.0 0.00 0.00 0.00 39 1010.7
20191112092847 71 126 6.0 14.0 0.00 0.00 0.00 39 1010.8
20191112092348 71 111 5.0 13.0 0.00 0.00 0.00 38 1010.9
20191112091848 71 113 5.0 13.0 0.00 0.00 0.00 39 1010.9
20191112091348 71 112 5.0 12.0 0.00 0.00 0.00 39 1011.1
20191112090847 70 134 6.0 14.0 0.00 0.00 0.00 40 1011.0
20191112090348 70 144 6.0 14.0 0.00 0.00 0.00 39 1011.1
20191112085848 70 136 6.0 14.0 0.00 0.00 0.00 39 1011.4
20191112085348 71 144 4.0 14.0 0.00 0.00 0.00 40 1011.4
20191112084848 71 146 4.0 14.0 0.00 0.00 0.00 39 1011.6
20191112084348 70 150 5.0 13.0 0.00 0.00 0.00 40 1011.6
20191112083848 70 130 5.0 16.0 0.00 0.00 0.00 40 1011.6
20191112083347 70 108 6.0 16.0 0.00 0.00 0.00 41 1011.7
20191112082848 70 121 7.0 16.0 0.00 0.00 0.00 41 1011.7
20191112082348 70 108 6.0 15.0 0.00 0.00 0.00 41 1011.7
20191112081848 69 92 6.0 15.0 0.00 0.00 0.00 41 1011.8
20191112081348 69 101 8.0 16.0 0.00 0.00 0.00 42 1011.9
20191112080844 69 159 7.0 20.0 0.00 0.00 0.00 41 1011.9
20191112080344 69 138 6.0 20.0 0.00 0.00 0.00 41 1012.0
20191112075844 69 153 7.0 17.0 0.00 0.00 0.00 41 1012.0
20191112075344 69 155 7.0 18.0 0.00 0.00 0.00 41 1012.1
20191112074844 69 118 6.0 18.0 0.00 0.00 0.00 41 1012.2
20191112074340 69 148 5.0 14.0 0.00 0.00 0.00 41 1012.1
20191112073840 70 127 4.0 14.0 0.00 0.00 0.00 41 1012.1
20191112073340 69 136 3.0 13.0 0.00 0.00 0.00 42 1012.0
20191112072840 69 160 5.0 15.0 0.00 0.00 0.00 42 1012.0
20191112072340 69 150 5.0 15.0 0.00 0.00 0.00 42 1012.0
20191112071841 69 128 4.0 14.0 0.00 0.00 0.00 42 1012.0
20191112071340 69 137 4.0 14.0 0.00 0.00 0.00 42 1012.1
20191112070840 69 100 4.0 14.0 0.00 0.00 0.00 42 1012.1
20191112070340 68 178 5.0 14.0 0.00 0.00 0.00 43 1012.0
20191112065840 68 109 6.0 12.0 0.00 0.00 0.00 43 1012.0
20191112065340 68 173 6.0 12.0 0.00 0.00 0.00 43 1012.1
20191112064839 68 119 5.0 12.0 0.00 0.00 0.00 43 1012.0
20191112064340 68 93 4.0 12.0 0.00 0.00 0.00 43 1012.0
20191112063840 68 36 5.0 12.0 0.00 0.00 0.00 43 1012.0
20191112063340 68 182 5.0 10.0 0.00 0.00 0.00 43 1012.0
20191112062840 68 135 4.0 10.0 0.00 0.00 0.00 43 1012.0
20191112062340 68 100 4.0 13.0 0.00 0.00 0.00 44 1011.9
20191112061841 67 105 4.0 13.0 0.00 0.00 0.00 43 1011.9
20191112061340 67 127 4.0 12.0 0.00 0.00 0.00 43 1012.0
20191112060840 67 111 4.0 12.0 0.00 0.00 0.00 43 1012.0
20191112060340 67 134 4.0 12.0 0.00 0.00 0.00 44 1012.0
20191112055840 66 128 4.0 12.0 0.00 0.00 0.00 44 1012.0
20191112055340 66 136 3.0 9.0 0.00 0.00 0.00 44 1012.0
20191112054839 66 117 3.0 10.0 0.00 0.00 0.00 44 1011.9
20191112054339 66 136 2.0 10.0 0.00 0.00 0.00 44 1012.0
20191112053839 66 138 2.0 9.0 0.00 0.00 0.00 44 1011.9
20191112053339 66 104 2.0 7.0 0.00 0.00 0.00 45 1011.9
20191112052839 65 109 2.0 8.0 0.00 0.00 0.00 45 1011.9
20191112052340 65 84 3.0 8.0 0.00 0.00 0.00 45 1011.9
20191112051842 65 111 2.0 7.0 0.00 0.00 0.00 45 1011.9
20191112051339 65 130 3.0 10.0 0.00 0.00 0.00 45 1011.9
20191112050840 64 126 2.0 10.0 0.00 0.00 0.00 45 1011.8
20191112050341 64 127 2.0 10.0 0.00 0.00 0.00 46 1011.7
20191112045840 64 164 2.0 10.0 0.00 0.00 0.00 47 1011.7
20191112045341 64 115 2.0 8.0 0.00 0.00 0.00 47 1011.6
20191112044841 63 105 2.0 9.0 0.00 0.00 0.00 47 1011.6
20191112044337 63 118 2.0 13.0 0.00 0.00 0.00 47 1011.5
20191112043836 63 140 2.0 13.0 0.00 0.00 0.00 48 1011.4
20191112043337 63 148 2.0 7.0 0.00 0.00 0.00 49 1011.4
20191112042837 63 105 2.0 7.0 0.00 0.00 0.00 49 1011.4
20191112042336 63 127 2.0 6.0 0.00 0.00 0.00 49 1011.3
20191112041835 62 120 1.0 6.0 0.00 0.00 0.00 49 1011.3
20191112041339 62 123 1.0 5.0 0.00 0.00 0.00 49 1011.4
20191112040836 63 114 1.0 4.0 0.00 0.00 0.00 49 1011.3
20191112040330 63 116 1.0 4.0 0.00 0.00 0.00 48 1011.3
20191112035824 63 112 2.0 7.0 0.00 0.00 0.00 48 1011.3
20191112035324 63 123 2.0 7.0 0.00 0.00 0.00 48 1011.1
20191112034825 63 125 1.0 7.0 0.00 0.00 0.00 47 1011.1
20191112034325 63 116 1.0 5.0 0.00 0.00 0.00 46 1011.1
20191112033825 63 94 1.0 7.0 0.00 0.00 0.00 46 1011.1
20191112033328 63 111 2.0 7.0 0.00 0.00 0.00 45 1011.1
20191112032824 63 89 2.0 6.0 0.00 0.00 0.00 45 1011.1
20191112032324 63 106 2.0 8.0 0.00 0.00 0.00 45 1011.1
20191112031824 63 101 2.0 8.0 0.00 0.00 0.00 45 1011.1
20191112031324 63 113 2.0 7.0 0.00 0.00 0.00 44 1011.1
20191112030825 63 110 2.0 7.0 0.00 0.00 0.00 44 1011.0
20191112030325 63 102 1.0 7.0 0.00 0.00 0.00 44 1010.9
20191112025824 63 113 1.0 8.0 0.00 0.00 0.00 43 1010.9
20191112025324 64 107 1.0 8.0 0.00 0.00 0.00 42 1010.9
20191112024824 64 111 1.0 6.0 0.00 0.00 0.00 41 1010.9
20191112024324 64 110 1.0 6.0 0.00 0.00 0.00 41 1010.8
20191112023824 64 82 2.0 8.0 0.00 0.00 0.00 40 1010.8
20191112023324 64 126 1.0 8.0 0.00 0.00 0.00 40 1010.8
20191112022826 64 101 1.0 6.0 0.00 0.00 0.00 39 1010.8
20191112022324 64 113 1.0 6.0 0.00 0.00 0.00 38 1010.8
20191112021820 64 106 1.0 4.0 0.00 0.00 0.00 38 1010.8
20191112021322 64 108 1.0 4.0 0.00 0.00 0.00 37 1010.8
20191112020820 64 105 1.0 4.0 0.00 0.00 0.00 36 1010.7
20191112020320 64 121 1.0 4.0 0.00 0.00 0.00 35 1010.7
20191112015820 64 117 1.0 4.0 0.00 0.00 0.00 35 1010.7
20191112015320 64 111 1.0 6.0 0.00 0.00 0.00 34 1010.7
20191112014820 64 110 2.0 6.0 0.00 0.00 0.00 34 1010.7
20191112014320 64 102 2.0 7.0 0.00 0.00 0.00 33 1010.7
20191112013820 64 112 2.0 7.0 0.00 0.00 0.00 32 1010.7
20191112013320 64 115 2.0 6.0 0.00 0.00 0.00 32 1010.7
20191112012816 65 108 2.0 6.0 0.00 0.00 0.00 31 1010.6
20191112012316 65 111 2.0 8.0 0.00 0.00 0.00 30 1010.6
20191112011818 65 111 2.0 9.0 0.00 0.00 0.00 30 1010.7
20191112011316 65 84 2.0 9.0 0.00 0.00 0.00 30 1010.7
20191112010816 65 105 1.0 6.0 0.00 0.00 0.00 29 1010.7
20191112010316 65 131 2.0 7.0 0.00 0.00 0.00 29 1010.7
20191112005816 65 124 2.0 9.0 0.00 0.00 0.00 29 1010.7
20191112005316 65 117 2.0 9.0 0.00 0.00 0.00 28 1010.7
20191112004817 65 115 2.0 9.0 0.00 0.00 0.00 27 1010.7
20191112004316 65 105 1.0 8.0 0.00 0.00 0.00 27 1010.7
20191112003816 65 123 2.0 8.0 0.00 0.00 0.00 26 1010.7
20191112003316 65 109 2.0 8.0 0.00 0.00 0.00 26 1010.7
20191112002816 65 105 2.0 6.0 0.00 0.00 0.00 26 1010.7
20191112002316 65 111 2.0 7.0 0.00 0.00 0.00 26 1010.8
20191112001812 65 104 1.0 8.0 0.00 0.00 0.00 25 1010.7
20191112001314 65 111 2.0 8.0 0.00 0.00 0.00 25 1010.8
20191112000811 65 80 2.0 7.0 0.00 0.00 0.00 25 1010.7
20191112000310 65 115 2.0 7.0 0.00 0.00 0.00 24 1010.8
20191111235811 65 101 2.0 7.0 0.00 0.00 0.00 24 1010.8
20191111235300 65 101 2.0 8.0 0.00 0.00 0.00 22 1010.9
20191111234801 65 113 2.0 8.0 0.00 0.00 0.00 22 1010.9
20191111234302 66 121 2.0 10.0 0.00 0.00 0.00 21 1011.0
20191111233802 66 117 2.0 10.0 0.00 0.00 0.00 21 1011.1
20191111233307 66 99 2.0 9.0 0.00 0.00 0.00 21 1011.1
20191111232801 66 101 3.0 9.0 0.00 0.00 0.00 20 1011.1
20191111232302 66 94 2.0 8.0 0.00 0.00 0.00 20 1011.1
20191111231800 66 123 2.0 8.0 0.00 0.00 0.00 20 1011.3
20191111231301 66 121 2.0 8.0 0.00 0.00 0.00 20 1011.4
20191111230756 66 99 2.0 8.0 0.00 0.00 0.00 19 1011.3
20191111230256 66 109 2.0 8.0 0.00 0.00 0.00 19 1011.3
20191111225757 66 110 2.0 12.0 0.00 0.00 0.00 19 1011.1
20191111225252 66 102 3.0 12.0 0.00 0.00 0.00 19 1011.3
20191111224752 66 106 2.0 9.0 0.00 0.00 0.00 19 1011.1
20191111224252 66 63 2.0 11.0 0.00 0.00 0.00 19 1011.1
20191111223752 66 38 3.0 11.0 0.00 0.00 0.00 19 1011.3
20191111223252 67 92 3.0 9.0 0.00 0.00 0.00 19 1011.3
20191111222751 67 98 2.0 9.0 0.00 0.00 0.00 19 1011.5
20191111222252 67 117 2.0 9.0 0.00 0.00 0.00 19 1011.4
20191111221753 67 105 2.0 9.0 0.00 0.00 0.00 19 1011.4
20191111221252 66 98 1.0 7.0 0.00 0.00 0.00 20 1011.4
20191111220754 67 96 1.0 7.0 0.00 0.00 0.00 20 1011.4
20191111220254 67 109 1.0 7.0 0.00 0.00 0.00 20 1011.4
20191111215754 67 137 2.0 8.0 0.00 0.00 0.00 20 1011.4
20191111215254 67 112 3.0 10.0 0.00 0.00 0.00 20 1011.4
20191111214752 67 92 3.0 10.0 0.00 0.00 0.00 20 1011.4
20191111214251 67 101 2.0 10.0 0.00 0.00 0.00 20 1011.4
20191111213752 67 98 2.0 7.0 0.00 0.00 0.00 20 1011.3
20191111213252 68 94 2.0 9.0 0.00 0.00 0.00 20 1011.3
20191111212752 68 117 2.0 9.0 0.00 0.00 0.00 20 1011.3
20191111212252 68 109 3.0 9.0 0.00 0.00 0.00 20 1011.1
20191111211752 68 111 2.0 9.0 0.00 0.00 0.00 20 1011.1
20191111211252 68 86 3.0 9.0 0.00 0.00 0.00 20 1011.3
20191111210751 68 86 3.0 11.0 0.00 0.00 0.00 20 1011.1
20191111210252 68 107 2.0 11.0 0.00 0.00 0.00 20 1011.1
20191111205752 68 98 2.0 9.0 0.00 0.00 0.00 20 1011.1
20191111205252 68 101 3.0 9.0 0.00 0.00 0.00 20 1011.0
20191111204752 68 124 2.0 8.0 0.00 0.00 0.00 21 1011.0
20191111204253 68 89 2.0 8.0 0.00 0.00 0.00 21 1011.0
20191111203752 68 69 2.0 8.0 0.00 0.00 0.00 21 1011.1
20191111203252 68 115 2.0 7.0 0.00 0.00 0.00 21 1011.1
20191111202752 68 102 1.0 7.0 0.00 0.00 0.00 21 1011.1
20191111202252 68 113 1.0 8.0 0.00 0.00 0.00 21 1011.1
20191111201752 68 116 1.0 8.0 0.00 0.00 0.00 21 1011.3
20191111201247 68 90 2.0 7.0 0.00 0.00 0.00 21 1011.4
20191111200748 69 104 2.0 10.0 0.00 0.00 0.00 21 1011.4
20191111200248 69 100 2.0 10.0 0.00 0.00 0.00 21 1011.4
20191111195748 69 112 2.0 9.0 0.00 0.00 0.00 21 1011.4
20191111195248 69 107 2.0 9.0 0.00 0.00 0.00 21 1011.4
20191111194748 69 113 3.0 9.0 0.00 0.00 0.00 21 1011.4
20191111194248 69 104 2.0 9.0 0.00 0.00 0.00 21 1011.4
20191111193749 69 109 2.0 8.0 0.00 0.00 0.00 21 1011.4
20191111193244 69 112 3.0 9.0 0.00 0.00 0.00 21 1011.4
20191111192744 69 106 3.0 11.0 0.00 0.00 0.00 21 1011.5
20191111192245 69 98 3.0 11.0 0.00 0.00 0.00 21 1011.5
20191111191744 69 207 3.0 9.0 0.00 0.00 0.00 21 1011.5
20191111191244 70 102 4.0 11.0 0.00 0.00 0.00 21 1011.5
20191111190744 70 85 3.0 11.0 0.00 0.00 0.00 21 1011.5
20191111190244 70 115 3.0 13.0 0.00 0.00 0.00 21 1011.5
20191111185744 69 122 3.0 13.0 0.00 0.00 0.00 21 1011.4
20191111185247 70 116 2.0 9.0 0.00 0.00 0.00 21 1011.4
20191111184744 70 113 2.0 10.0 0.00 0.00 0.00 21 1011.5
20191111184244 70 111 3.0 10.0 0.00 0.00 0.00 21 1011.4
20191111183745 70 138 2.0 9.0 0.00 0.00 0.00 21 1011.4
20191111183247 70 116 2.0 9.0 0.00 0.00 0.00 22 1011.4
20191111182746 70 119 3.0 9.0 0.00 0.00 0.00 22 1011.4
20191111182243 70 121 3.0 11.0 0.00 0.00 0.00 22 1011.4
20191111181743 70 92 2.0 11.0 0.00 0.00 0.00 22 1011.4
20191111181244 70 130 2.0 8.0 0.00 0.00 0.00 23 1011.4
20191111180744 70 107 2.0 7.0 0.00 0.00 0.00 23 1011.4
20191111180244 70 136 2.0 8.0 0.00 0.00 0.00 23 1011.3
20191111175744 70 130 2.0 8.0 0.00 0.00 0.00 23 1011.4
20191111175244 70 132 2.0 10.0 0.00 0.00 0.00 23 1011.4
20191111174743 70 87 2.0 10.0 0.00 0.00 0.00 23 1011.4
20191111174244 70 107 2.0 7.0 0.00 0.00 0.00 23 1011.4
20191111173745 70 126 1.0 7.0 0.00 0.00 0.00 23 1011.3
20191111173244 70 113 2.0 8.0 0.00 0.00 0.00 23 1011.3
20191111172740 70 101 2.0 8.0 0.00 0.00 0.00 23 1011.1
20191111172240 70 109 2.0 11.0 0.00 0.00 0.00 23 1011.0
20191111171740 70 108 2.0 11.0 0.00 0.00 0.00 23 1011.0
20191111171240 70 105 2.0 7.0 0.00 0.00 0.00 23 1010.9
20191111170740 70 133 2.0 9.0 0.00 0.00 0.00 23 1010.9
20191111170239 70 98 2.0 9.0 0.00 0.00 0.00 23 1010.9
20191111165739 70 115 2.0 8.0 0.00 0.00 0.00 23 1010.8
20191111165240 70 114 2.0 8.0 0.00 0.00 0.00 23 1010.8
20191111164742 71 111 2.0 11.0 0.00 0.00 0.00 23 1010.8
20191111164242 70 102 2.0 11.0 0.00 0.00 0.00 24 1010.8
20191111163740 70 119 2.0 8.0 0.00 0.00 0.00 24 1010.8
20191111163240 71 132 2.0 7.0 0.00 0.00 0.00 24 1010.8
20191111162739 71 118 2.0 7.0 0.00 0.00 0.00 24 1010.7
20191111162240 71 132 2.0 9.0 0.00 0.00 0.00 24 1010.7
20191111161740 71 111 2.0 9.0 0.00 0.00 0.00 24 1010.7
20191111161240 71 112 2.0 9.0 0.00 0.00 0.00 24 1010.7
20191111160740 71 106 2.0 7.0 0.00 0.00 0.00 24 1010.7
20191111160240 71 110 2.0 8.0 0.00 0.00 0.00 24 1010.7
20191111155740 71 110 2.0 8.0 0.00 0.00 0.00 25 1010.7
20191111155240 71 128 2.0 9.0 0.00 0.00 0.00 24 1010.6
20191111154736 71 94 2.0 9.0 0.00 0.00 0.00 24 1010.6
20191111154236 71 127 2.0 8.0 0.00 0.00 0.00 24 1010.6
20191111153731 71 112 3.0 8.0 0.00 0.00 0.00 24 1010.6
20191111153232 71 109 2.0 8.0 0.00 0.00 0.00 24 1010.6
20191111152732 71 117 2.0 9.0 0.00 0.00 0.00 24 1010.5
20191111152232 71 96 2.0 9.0 0.00 0.00 0.00 24 1010.5
20191111151732 72 111 2.0 11.0 0.00 0.00 0.00 24 1010.5
20191111151232 72 109 3.0 11.0 0.00 0.00 0.00 24 1010.5
20191111150728 72 97 2.0 11.0 0.00 0.00 0.00 24 1010.4
20191111150228 72 138 2.0 8.0 0.00 0.00 0.00 24 1010.5
20191111145724 72 108 2.0 11.0 0.00 0.00 0.00 24 1010.5
20191111145223 72 129 2.0 11.0 0.00 0.00 0.00 24 1010.4
20191111144724 72 107 2.0 6.0 0.00 0.00 0.00 24 1010.4
20191111144224 73 103 3.0 10.0 0.00 0.00 0.00 24 1010.4
20191111143728 73 133 3.0 10.0 0.00 0.00 0.00 23 1010.4
20191111143224 73 87 3.0 8.0 0.00 0.00 0.00 23 1010.4
20191111142725 73 103 3.0 8.0 0.00 0.00 0.00 23 1010.4
20191111142224 74 119 3.0 11.0 0.00 0.00 0.00 23 1010.3
20191111141724 74 136 4.0 11.0 0.00 0.00 0.00 23 1010.4
20191111141224 74 134 4.0 10.0 0.00 0.00 0.00 23 1010.5
20191111140723 74 129 4.0 10.0 0.00 0.00 0.00 23 1010.5
20191111140220 74 88 3.0 11.0 0.00 0.00 0.00 23 1010.6
20191111135720 74 106 4.0 12.0 0.00 0.00 0.00 22 1010.6
20191111135220 75 110 4.0 12.0 0.00 0.00 0.00 22 1010.6
20191111134720 75 105 4.0 12.0 0.00 0.00 0.00 22 1010.6
20191111134220 75 119 4.0 10.0 0.00 0.00 0.00 22 1010.6
20191111133720 75 55 4.0 12.0 0.00 0.00 0.00 22 1010.6
20191111133221 75 108 4.0 12.0 0.00 0.00 0.00 22 1010.7
20191111132720 75 124 4.0 12.0 0.00 0.00 0.00 22 1010.7
20191111132220 75 101 4.0 14.0 0.00 0.00 0.00 22 1010.7
20191111131719 76 117 5.0 14.0 0.00 0.00 0.00 22 1010.7
20191111131219 76 142 5.0 12.0 0.00 0.00 0.00 22 1010.8
20191111130720 76 121 4.0 11.0 0.00 0.00 0.00 22 1010.7
20191111130219 76 134 4.0 11.0 0.00 0.00 0.00 22 1010.7
20191111125720 76 126 4.0 14.0 0.00 0.00 0.00 22 1010.7
20191111125220 76 106 4.0 14.0 0.00 0.00 0.00 22 1010.7